N200JT KDEN-KASE

Flight info

Callsign N200JT
Flight time 0h 30m
Altitude 26000
Route CONNR8 CONNR MMARY MMARY1
Aircraft C750/M-SBDE3FGHRWXY/S

Departure

Time 2026-04-22 03:28
Airport Denver International Airport (KDEN)

Arrival

Time 2026-04-22 03:59
Airport Aspen-Pitkin County Airport (Sardy Field) (KASE)
Time Latitude Longitude Altitude Speed Heading
2026-04-22 03:00 39.83879 -104.66473 5410 ft 0 kts 180°
2026-04-22 03:18 39.83877 -104.66472 5410 ft 1 kts 178°
2026-04-22 03:18 39.83872 -104.66464 5401 ft 1 kts 117°
2026-04-22 03:18 39.83873 -104.66459 5401 ft 1 kts 78°
2026-04-22 03:18 39.83880 -104.66438 5411 ft 4 kts 57°
2026-04-22 03:19 39.83910 -104.66406 5407 ft 8 kts 34°
2026-04-22 03:19 39.83973 -104.66373 5404 ft 9 kts 18°
2026-04-22 03:19 39.84004 -104.66352 5414 ft 2 kts 43°
2026-04-22 03:19 39.84006 -104.66349 5416 ft 0 kts 43°
2026-04-22 03:20 39.84007 -104.66347 5416 ft 1 kts 53°
2026-04-22 03:21 39.84013 -104.66332 5411 ft 3 kts 65°
2026-04-22 03:21 39.84026 -104.66293 5414 ft 7 kts 58°
2026-04-22 03:21 39.84081 -104.66255 5417 ft 11 kts
2026-04-22 03:21 39.84183 -104.66252 5415 ft 19 kts
2026-04-22 03:22 39.84321 -104.66249 5406 ft 22 kts 358°
2026-04-22 03:22 39.84473 -104.66249 5412 ft 21 kts
2026-04-22 03:22 39.84618 -104.66247 5406 ft 21 kts
2026-04-22 03:22 39.84760 -104.66245 5402 ft 21 kts
2026-04-22 03:23 39.84902 -104.66244 5395 ft 20 kts
2026-04-22 03:23 39.85042 -104.66242 5398 ft 21 kts
2026-04-22 03:23 39.85186 -104.66242 5395 ft 21 kts 360°
2026-04-22 03:23 39.85328 -104.66238 5394 ft 20 kts 359°
2026-04-22 03:24 39.85468 -104.66238 5394 ft 21 kts 360°
2026-04-22 03:24 39.85620 -104.66237 5390 ft 24 kts
2026-04-22 03:24 39.85797 -104.66234 5385 ft 27 kts
2026-04-22 03:24 39.85988 -104.66230 5384 ft 28 kts
2026-04-22 03:25 39.86190 -104.66227 5378 ft 31 kts 359°
2026-04-22 03:25 39.86396 -104.66227 5377 ft 25 kts 359°
2026-04-22 03:25 39.86499 -104.66171 5378 ft 14 kts 92°
2026-04-22 03:25 39.86499 -104.66069 5378 ft 13 kts 91°
2026-04-22 03:26 39.86497 -104.65914 5374 ft 21 kts 89°
2026-04-22 03:26 39.86496 -104.65679 5369 ft 30 kts 90°
2026-04-22 03:26 39.86494 -104.65378 5363 ft 35 kts 90°
2026-04-22 03:26 39.86492 -104.65069 5356 ft 34 kts 91°
2026-04-22 03:27 39.86489 -104.64766 5348 ft 34 kts 91°
2026-04-22 03:27 39.86487 -104.64470 5344 ft 32 kts 90°
2026-04-22 03:27 39.86486 -104.64235 5341 ft 23 kts 90°
2026-04-22 03:27 39.86441 -104.64127 5342 ft 11 kts 175°
2026-04-22 03:28 39.86156 -104.64135 5345 ft 92 kts 178°
2026-04-22 03:28 39.85286 -104.64160 5482 ft 142 kts 181°
2026-04-22 03:28 39.84219 -104.64223 6040 ft 162 kts 181°
2026-04-22 03:28 39.83088 -104.64598 6586 ft 181 kts 206°
2026-04-22 03:29 39.82150 -104.65813 7230 ft 205 kts 235°
2026-04-22 03:29 39.81817 -104.67700 8016 ft 229 kts 267°
2026-04-22 03:29 39.82026 -104.69795 8955 ft 237 kts 273°
2026-04-22 03:29 39.82278 -104.71927 9936 ft 241 kts 273°
2026-04-22 03:30 39.82519 -104.74190 10283 ft 269 kts 273°
2026-04-22 03:30 39.82777 -104.76682 10194 ft 285 kts 274°
2026-04-22 03:30 39.83064 -104.79261 10083 ft 288 kts 274°
2026-04-22 03:30 39.83349 -104.81846 9982 ft 288 kts 274°
2026-04-22 03:31 39.83532 -104.83550 9979 ft 289 kts 273°
2026-04-22 03:31 39.83900 -104.87021 9955 ft 291 kts 273°
2026-04-22 03:31 39.84166 -104.89630 9939 ft 290 kts 272°
2026-04-22 03:31 39.83953 -104.92216 9995 ft 292 kts 251°
2026-04-22 03:32 39.83427 -104.94702 11039 ft 287 kts 253°
2026-04-22 03:32 39.82937 -104.97240 11932 ft 292 kts 254°
2026-04-22 03:32 39.82437 -104.99825 12826 ft 296 kts 253°
2026-04-22 03:32 39.81910 -105.02435 13819 ft 300 kts 253°
2026-04-22 03:33 39.81374 -105.05075 14633 ft 303 kts 253°
2026-04-22 03:33 39.80839 -105.07742 15458 ft 307 kts 253°
2026-04-22 03:33 39.80299 -105.10445 16287 ft 310 kts 253°
2026-04-22 03:33 39.79748 -105.13180 17131 ft 314 kts 253°
2026-04-22 03:34 39.79178 -105.15997 17614 ft 332 kts 253°
2026-04-22 03:34 39.78580 -105.18951 18047 ft 347 kts 253°
2026-04-22 03:34 39.77971 -105.21980 18913 ft 347 kts 253°
2026-04-22 03:34 39.77354 -105.25035 19668 ft 351 kts 253°
2026-04-22 03:35 39.76727 -105.28118 20473 ft 354 kts 253°
2026-04-22 03:35 39.76093 -105.31233 21275 ft 358 kts 253°
2026-04-22 03:35 39.75669 -105.33311 21822 ft 360 kts 253°
2026-04-22 03:35 39.74804 -105.37540 22927 ft 364 kts 253°
2026-04-22 03:36 39.74372 -105.39651 23474 ft 366 kts 253°
2026-04-22 03:36 39.73716 -105.42861 24136 ft 370 kts 253°
2026-04-22 03:36 39.73052 -105.46101 24772 ft 373 kts 253°
2026-04-22 03:36 39.72371 -105.49412 25011 ft 388 kts 253°
2026-04-22 03:37 39.71671 -105.52816 25599 ft 386 kts 253°
2026-04-22 03:37 39.70974 -105.56211 25920 ft 395 kts 253°
2026-04-22 03:37 39.70269 -105.59646 25914 ft 394 kts 254°
2026-04-22 03:37 39.69568 -105.63091 25917 ft 395 kts 254°
2026-04-22 03:38 39.68869 -105.66530 25952 ft 392 kts 253°
2026-04-22 03:38 39.68222 -105.70041 25957 ft 409 kts 255°
2026-04-22 03:38 39.67523 -105.73717 25963 ft 427 kts 254°
2026-04-22 03:38 39.66802 -105.77490 25962 ft 444 kts 254°
2026-04-22 03:39 39.66058 -105.81461 25981 ft 459 kts 255°
2026-04-22 03:39 39.65295 -105.85553 25972 ft 473 kts 255°
2026-04-22 03:39 39.64502 -105.89744 25973 ft 484 kts 255°
2026-04-22 03:39 39.63691 -105.94006 25986 ft 489 kts 255°
2026-04-22 03:40 39.62874 -105.98303 25986 ft 491 kts 255°
2026-04-22 03:40 39.62057 -106.02611 25981 ft 491 kts 254°
2026-04-22 03:40 39.61237 -106.06923 25989 ft 492 kts 254°
2026-04-22 03:40 39.60426 -106.11168 25895 ft 467 kts 254°
2026-04-22 03:41 39.59674 -106.15113 25239 ft 437 kts 254°
2026-04-22 03:41 39.58964 -106.18815 24706 ft 410 kts 253°
2026-04-22 03:41 39.58294 -106.22287 24385 ft 383 kts 253°
2026-04-22 03:41 39.57673 -106.25517 24222 ft 356 kts 253°
2026-04-22 03:42 39.57087 -106.28554 23658 ft 344 kts 253°
2026-04-22 03:42 39.56500 -106.31569 22718 ft 344 kts 253°
2026-04-22 03:42 39.55921 -106.34561 21898 ft 340 kts 253°
2026-04-22 03:42 39.55357 -106.37483 21030 ft 337 kts 252°
2026-04-22 03:43 39.54789 -106.40421 20239 ft 333 kts 252°
2026-04-22 03:43 39.54275 -106.43336 19351 ft 332 kts 258°
2026-04-22 03:43 39.54278 -106.46353 18611 ft 333 kts 269°
2026-04-22 03:43 39.54374 -106.49338 17952 ft 330 kts 268°
2026-04-22 03:44 39.54443 -106.52247 17662 ft 322 kts 268°
2026-04-22 03:44 39.54505 -106.55160 17213 ft 323 kts 268°
2026-04-22 03:44 39.54575 -106.58063 16858 ft 321 kts 268°
2026-04-22 03:44 39.54649 -106.60950 16518 ft 321 kts 269°
2026-04-22 03:45 39.54720 -106.63837 16167 ft 319 kts 269°
2026-04-22 03:45 39.54779 -106.66670 15840 ft 316 kts 267°
2026-04-22 03:45 39.54547 -106.69475 15500 ft 312 kts 257°
2026-04-22 03:45 39.54191 -106.72223 15188 ft 303 kts 257°
2026-04-22 03:46 39.53860 -106.74897 14866 ft 300 kts 258°
2026-04-22 03:46 39.53549 -106.77568 14541 ft 301 kts 259°
2026-04-22 03:46 39.53234 -106.80253 14231 ft 301 kts 258°
2026-04-22 03:46 39.52910 -106.82933 13918 ft 300 kts 258°
2026-04-22 03:47 39.52590 -106.85573 13587 ft 296 kts 258°
2026-04-22 03:47 39.52274 -106.88199 13417 ft 297 kts 258°
2026-04-22 03:47 39.51960 -106.90816 13322 ft 295 kts 259°
2026-04-22 03:47 39.51563 -106.93445 13274 ft 294 kts 249°
2026-04-22 03:48 39.50538 -106.95654 13291 ft 283 kts 229°
2026-04-22 03:48 39.49051 -106.97261 13288 ft 284 kts 211°
2026-04-22 03:48 39.47184 -106.98157 13226 ft 293 kts 189°
2026-04-22 03:48 39.45187 -106.97889 13264 ft 290 kts 168°
2026-04-22 03:49 39.43261 -106.96986 13264 ft 293 kts 161°
2026-04-22 03:49 39.41337 -106.95980 13252 ft 297 kts 161°
2026-04-22 03:49 39.39382 -106.95046 13221 ft 299 kts 163°
2026-04-22 03:49 39.37440 -106.94140 13216 ft 293 kts 162°
2026-04-22 03:50 39.35552 -106.93239 12665 ft 286 kts 162°
2026-04-22 03:50 39.33751 -106.92367 12558 ft 266 kts 162°
2026-04-22 03:50 39.32090 -106.91448 12088 ft 253 kts 159°
2026-04-22 03:50 39.30526 -106.90614 11523 ft 241 kts 161°
2026-04-22 03:51 39.28981 -106.89978 10737 ft 220 kts 162°
2026-04-22 03:51 39.27575 -106.89312 9555 ft 212 kts 160°
2026-04-22 03:51 39.26238 -106.88773 9101 ft 187 kts 161°
2026-04-22 03:51 39.25050 -106.88222 8602 ft 174 kts 160°
2026-04-22 03:52 39.23969 -106.87686 8001 ft 158 kts 162°
2026-04-22 03:52 39.22999 -106.87236 7826 ft 137 kts 150°
2026-04-22 03:52 39.22185 -106.86899 7832 ft 119 kts 150°
2026-04-22 03:52 39.21355 -106.86524 8077 ft 132 kts 157°
2026-04-22 03:53 39.20448 -106.86747 8677 ft 143 kts 211°
2026-04-22 03:53 39.19864 -106.87909 8907 ft 169 kts 261°
2026-04-22 03:53 39.20217 -106.89363 9656 ft 185 kts 306°
2026-04-22 03:53 39.21199 -106.90549 10178 ft 205 kts 320°
2026-04-22 03:54 39.22469 -106.91565 10503 ft 230 kts 336°
2026-04-22 03:54 39.24055 -106.92257 10897 ft 261 kts 340°
2026-04-22 03:54 39.25906 -106.93138 11065 ft 298 kts 335°
2026-04-22 03:54 39.27721 -106.94293 11114 ft 286 kts 328°
2026-04-22 03:55 39.29540 -106.95333 10482 ft 285 kts 345°
2026-04-22 03:55 39.31444 -106.95333 9964 ft 262 kts 18°
2026-04-22 03:55 39.32670 -106.93975 9257 ft 222 kts 72°
2026-04-22 03:55 39.32396 -106.92384 9119 ft 169 kts 143°
2026-04-22 03:56 39.31375 -106.92441 8777 ft 153 kts 209°
2026-04-22 03:56 39.30431 -106.92775 8172 ft 143 kts 167°
2026-04-22 03:56 39.29693 -106.92019 7825 ft 137 kts 130°
2026-04-22 03:56 39.29085 -106.91145 7844 ft 130 kts 135°
2026-04-22 03:57 39.28366 -106.90370 7967 ft 139 kts 141°
2026-04-22 03:57 39.27621 -106.89638 7979 ft 127 kts 140°
2026-04-22 03:57 39.26944 -106.89005 8044 ft 133 kts 160°
2026-04-22 03:57 39.26073 -106.88701 8001 ft 130 kts 162°
2026-04-22 03:58 39.25227 -106.88250 8010 ft 128 kts 153°
2026-04-22 03:58 39.24385 -106.87880 7954 ft 130 kts 162°
2026-04-22 03:58 39.23505 -106.87449 7928 ft 132 kts 155°
2026-04-22 03:58 39.22693 -106.87069 7819 ft 111 kts 153°
2026-04-22 03:59 39.22120 -106.86791 7817 ft 63 kts 160°
2026-04-22 03:59 39.21915 -106.86682 7818 ft 15 kts 142°
2026-04-22 03:59 39.21881 -106.86601 7818 ft 7 kts 87°
2026-04-22 03:59 39.21900 -106.86564 7815 ft 3 kts 23°
2026-04-22 04:00 39.21922 -106.86574 7818 ft 5 kts 334°
2026-04-22 04:00 39.21959 -106.86597 7818 ft 9 kts 334°